SBIRS GEO-1 (USA 230)

Last updated on Oct. 23, 2020, 5:56 a.m. UTC

1 37481U 11019A   20296.83897444 -.00000024  00000-0  00000-0 0  9998
2 37481   1.9456 349.1301 0002358 217.4094 193.4338  1.00272124 34711
UTC
Height (km)
Latitude
Longitude
Inclination
Orbital Period
UTC large
Height (km)
Speed (km/s)
/
Latitude / Longitude
Inclination (degrees)
Orbital Period (minutes)
Azimuth
Elevation
Range (km)
Doppler Factor
iOS Compass Heading
iOS Angle

Next 30 passes for location: Hong Kong

Rise time Rise Azimuth (degrees) Set time Set Azimuth (degrees) Duration Max altitude (degrees)

No matching passes for this satellites